Location: Newark
(47.0000°N, 7.6833°E)
Time: 02:24:47
(UTC+00:00)

CAS-4A - Visible Passes

Search period start: 17 October 2019 00:00
Search period end: 27 October 2019 00:00
Orbit: 528 x 546 km, 43.0° (Epoch: 16 October)

Date Brightness Start Highest point End Pass type
(mag) Time Alt. Az. Time Alt. Az. Time Alt. Az.
20 Oct ? 17:55:31 10° SSE 17:55:41 10° SE 17:55:41 10° SE visible
21 Oct ? 17:43:40 10° S 17:45:28 13° SE 17:46:15 12° SE visible
21 Oct ? 19:21:08 10° SW 19:21:37 13° SW 19:21:37 13° SW visible
22 Oct ? 17:32:43 10° S 17:35:07 15° SSE 17:36:44 13° ESE visible
22 Oct ? 19:10:48 10° SW 19:12:06 19° SW 19:12:06 19° SW visible
23 Oct ? 17:21:58 10° SSW 17:24:47 18° SSE 17:27:08 12° ESE visible
23 Oct ? 19:00:29 10° WSW 19:02:30 25° SW 19:02:30 25° SW visible
24 Oct ? 17:11:21 10° SSW 17:14:28 21° SSE 17:17:29 11° ESE visible
24 Oct ? 18:50:11 10° WSW 18:52:50 33° SW 18:52:50 33° SW visible
25 Oct ? 17:00:49 10° SSW 17:04:10 25° SSE 17:07:32 10° E visible
25 Oct ? 18:39:54 10° WSW 18:43:08 41° SSW 18:43:08 41° SSW visible
26 Oct ? 16:50:21 10° SW 16:53:51 28° SSE 16:57:24 10° E visible
26 Oct ? 18:29:39 10° WSW 18:33:23 47° S 18:33:23 47° S visible
